Terminal Aerodrome Forecast
Issued by NWS

Home | Current Version | Previous Version | Text Only | Print | Product List | Glossary Off
Versions: 1 2 3 4 5 6 7 8 9 10 11 12 13 14 15 16 17

088
FTUS43 KABR 210311 AAB
TAFATY
TAF AMD
KATY 210311Z 2103/2124 16020G30KT P6SM BKN070
     FM211100 19013G21KT P6SM BKN025
     FM211500 25013KT P6SM BKN025
     FM211600 26014G21KT P6SM BKN040=

USA.gov is the U.S. government's official web portal to all federal, state and local government web resources and services.